Weather in Lubyanki

Russia / Oryol Oblast     52°33′29″N   35°24′32″E
temp.,
°C
wind,
m/s
gust,
m/s
humid.,
%
clouds,
%
prec.,
mm/h
press.,
hPa
HPBL,
m
21 april, wed
wed2100:00+3nne5796100 0.1 1007425
03:00+3n4697100 0.1 1006391
06:00+2nw4695100 0.0 1006492
09:00+4wnw458796 0.1 1008560
12:00+6w4571100 0.1 10101124
15:00+7wsw4671100 0.1 10111160
18:00+6wsw4584100 0.2 1012670
21:00+5ssw4793100 0.7 1014313
22 april, thu
thu2200:00+4ssw5993100 0.0 1015327
03:00+2s499660 0.0 1016204
06:00+3s41095100 0.0 1016245
09:00+7ssw61181100 0.4 1017494
12:00+10ssw7107525 0.5 1017746
15:00+13sw71068100 1.5 10161229
18:00+12ssw61171100 1.3 1016651
21:00+9s4118575 2.4 1017232
23 april, fri
fri2300:00+9s6158076 0.0 1017375
03:00+8s6148273 0.0 1016358
06:00+7s514855 0.0 1016318
09:00+12s713735 0.1 1015814
12:00+15ssw8115692 0.0 10141585
15:00+14ssw71066100 1.9 10131519
18:00+9nw5691100 3.1 1013395
21:00+7nw1196100 7.9 1012225
24 april, sat
sat2400:00+5nw4596100 6.1 1011328
03:00+3nw6897100 9.7 1009610
06:00+2wnw49100100 6.4 1010353
09:00+3wnw4897100 7.7 1011536
12:00+7wnw5768100 1.1 10111449
15:00+8w5751100 1.8 10101795
18:00+7wnw696796 1.1 1011859
21:00+3wsw4108542 1.3 1013241
25 april, sun
sun2500:00+2wsw498739 0.0 1013247
03:000wsw411895 0.0 1013268
06:000wsw410885 0.0 1014298
09:00+4wsw68746 0.0 1013942
12:00+6w7964100 0.8 10131658
15:00+8wsw7104798 0.9 10132661
18:00+6wsw710605 0.2 10131376
21:00+2wsw37775 0.3 1014148